STARLINK-1279 1 45360U 20019A 21063.29902875 .00000649 00000-0 62455-4 0 9999 2 45360 53.0579 78.0268 0001490 62.7629 297.3512 15.06389150 54103 STARLINK-1301 1 45361U 20019B 21063.48610175 .00000689 00000-0 65174-4 0 9995 2 45361 53.0563 87.1995 0001311 81.4238 278.6899 15.06395355 54004 STARLINK-1306 1 45362U 20019C 21063.59849608 .00000899 00000-0 79182-4 0 9990 2 45362 53.0581 106.6819 0000977 80.0537 280.0563 15.06406810 53734 STARLINK-1313 1 45364U 20019E 21063.29532792 .00000998 00000-0 85891-4 0 9996 2 45364 53.0583 78.0430 0001228 65.7681 294.3437 15.06409325 54103 STARLINK-1317 1 45365U 20019F 21063.44852643 .00000533 00000-0 55746-4 0 9995 2 45365 52.9993 87.3766 0001245 104.8168 255.2958 15.05574005 53982 STARLINK-1262 1 45366U 20019G 21063.58376833 .00000878 00000-0 77841-4 0 9995 2 45366 53.0579 106.7547 0001286 92.8337 267.2800 15.06397997 53744 STARLINK-1273 1 45367U 20019H 21063.53952361 -.00000939 00000-0 -44167-4 0 9992 2 45367 53.0582 106.9489 0001031 75.5522 284.5581 15.06395866 53738 STARLINK-1276 1 45368U 20019J 21063.51003898 -.00001320 00000-0 -69731-4 0 9992 2 45368 53.0572 107.0822 0001455 86.6034 273.5121 15.06400502 53734 STARLINK-1277 1 45369U 20019K 21063.77448985 .00000613 00000-0 60030-4 0 9996 2 45369 53.0565 105.8983 0001257 87.3704 272.7429 15.06391824 53775 STARLINK-1281 1 45370U 20019L 21063.43264418 .00001273 00000-0 10438-3 0 9997 2 45370 53.0576 107.4303 0001238 76.2939 283.8188 15.06391846 53723 STARLINK-1287 1 45371U 20019M 21063.39578499 .00001078 00000-0 91268-4 0 9994 2 45371 53.0598 107.5984 0001290 70.9561 289.1568 15.06398921 53715 STARLINK-1288 1 45372U 20019N 21063.34417134 .00000982 00000-0 84789-4 0 9991 2 45372 53.0582 107.8273 0001344 78.0854 282.0286 15.06404940 53704 STARLINK-1295 1 45373U 20019P 21063.52478865 .00000709 00000-0 66517-4 0 9996 2 45373 53.0574 107.0148 0001289 82.4096 277.7039 15.06391611 53734 STARLINK-1300 1 45374U 20019Q 21063.52110359 .00000659 00000-0 63157-4 0 9999 2 45374 53.0563 107.0310 0001450 75.6037 284.5113 15.06394483 53732 STARLINK-1302 1 45375U 20019R 21063.53583090 .00000930 00000-0 81332-4 0 9994 2 45375 53.0588 106.9709 0001220 75.7990 284.3134 15.06408088 53732 STARLINK-1304 1 45376U 20019S 21063.42157212 .00000071 00000-0 23660-4 0 9992 2 45376 53.0581 107.4758 0001343 73.8118 286.3019 15.06398645 53712 STARLINK-1305 1 45377U 20019T 21063.77911539 .00001006 00000-0 86448-4 0 9993 2 45377 53.0574 105.8730 0001316 96.4393 263.6746 15.06393841 53777 STARLINK-1310 1 45378U 20019U 21063.50266614 -.00001090 00000-0 -54246-4 0 9998 2 45378 53.0586 107.1221 0002443 48.0607 312.0590 15.06397440 53735 STARLINK-1319 1 45379U 20019V 21063.50634936 -.00000820 00000-0 -36144-4 0 9992 2 45379 53.0574 107.0997 0001314 77.2335 282.8801 15.06398634 53735 STARLINK-1207 1 45380U 20019W 21063.43816810 -.00001084 00000-0 -53890-4 0 9999 2 45380 53.0571 87.4099 0000898 96.9129 263.1962 15.06393927 53991 STARLINK-1258 1 45381U 20019X 21063.44923184 .00000826 00000-0 74367-4 0 9997 2 45381 53.0571 87.3624 0001008 107.4174 252.6925 15.06395775 53992 STARLINK-1264 1 45382U 20019Y 21063.49345039 -.00000604 00000-0 -21668-4 0 9992 2 45382 53.0568 87.1702 0000915 85.5612 274.5481 15.06396593 53824 STARLINK-1266 1 45383U 20019Z 21063.57454967 -.00001091 00000-0 -54378-4 0 9998 2 45383 53.0560 86.8001 0001152 79.2327 280.8792 15.06394243 54019 STARLINK-1267 1 45384U 20019AA 21063.43079984 .00000853 00000-0 76186-4 0 9990 2 45384 53.0570 87.4510 0000861 119.1673 240.9403 15.06391332 53995 STARLINK-1272 1 45386U 20019AC 21063.43448491 .00000690 00000-0 65169-4 0 9993 2 45386 53.0563 87.4254 0000815 93.5722 266.5360 15.06400912 53994 STARLINK-1274 1 45387U 20019AD 21063.32389944 -.00001327 00000-0 -70263-4 0 9990 2 45387 53.0577 87.9203 0000726 109.8215 250.2852 15.06392180 53979 STARLINK-1280 1 45388U 20019AE 21063.49161196 -.00000827 00000-0 -36643-4 0 9994 2 45388 53.0587 107.1656 0001120 79.2470 280.8645 15.06393748 53712 STARLINK-1283 1 45389U 20019AF 21063.47134924 .00000706 00000-0 66268-4 0 9992 2 45389 53.0575 87.2634 0000956 97.3925 262.7172 15.06389793 54008 STARLINK-1284 1 45390U 20019AG 21063.44553343 -.00001084 00000-0 -53889-4 0 9998 2 45390 53.0567 87.3798 0000737 91.6681 268.4393 15.06396958 53992 STARLINK-1289 1 45391U 20019AH 21063.32758400 -.00001133 00000-0 -57179-4 0 9998 2 45391 53.0565 87.9069 0000848 104.1398 255.9686 15.06396218 53700 STARLINK-1290 1 45392U 20019AJ 21063.40937469 .00003142 00000-0 22952-3 0 9992 2 45392 52.9933 86.9934 0000763 46.8498 313.2554 15.06431649 53718 STARLINK-1291 1 45393U 20019AK 21063.42343787 .00000903 00000-0 79526-4 0 9991 2 45393 53.0579 87.4808 0000814 104.5015 255.6064 15.06397080 53756 STARLINK-1292 1 45394U 20019AL 21063.38656682 .00000640 00000-0 61832-4 0 9997 2 45394 53.0562 87.6397 0001074 109.0080 251.1026 15.06395820 53721 STARLINK-1297 1 45395U 20019AM 21063.54875806 .00000710 00000-0 66547-4 0 9993 2 45395 53.0570 86.9159 0001247 76.1626 283.9501 15.06394460 53192 STARLINK-1303 1 45396U 20019AN 21063.46397436 .00000695 00000-0 65552-4 0 9990 2 45396 53.0579 87.2993 0001041 95.8611 264.2497 15.06392958 53710 STARLINK-1307 1 45397U 20019AP 21063.47500882 .00000469 00000-0 50380-4 0 9995 2 45397 53.0562 87.2501 0001075 82.3881 277.7230 15.06404897 53827 STARLINK-1312 1 45398U 20019AQ 21063.46764969 -.00000718 00000-0 -29314-4 0 9995 2 45398 53.0577 87.2819 0001009 94.3821 265.7283 15.06393727 53756 STARLINK-1255 1 45399U 20019AR 21063.50911767 .00000629 00000-0 61145-4 0 9998 2 45399 53.0579 77.0849 0001564 71.9021 288.2138 15.06402763 53950 STARLINK-1213 1 45400U 20019AS 21063.52387259 .00000799 00000-0 72572-4 0 9990 2 45400 53.0567 77.0163 0001399 63.2698 296.8434 15.06390571 53888 STARLINK-1256 1 45401U 20019AT 21063.25478289 .00000740 00000-0 68539-4 0 9999 2 45401 53.0564 78.2259 0001305 77.4987 282.6148 15.06402642 53912 STARLINK-1257 1 45402U 20019AU 21063.45014130 -.00001182 00000-0 -60446-4 0 9995 2 45402 53.0575 77.3482 0001721 79.6095 280.5088 15.06397819 53952 STARLINK-1259 1 45403U 20019AV 21063.53124488 .00000913 00000-0 80174-4 0 9992 2 45403 53.0587 76.9843 0001409 60.3220 299.7909 15.06394355 53958 STARLINK-1260 1 45404U 20019AW 21063.47594697 .00000709 00000-0 66519-4 0 9999 2 45404 53.0578 77.2344 0001410 67.1403 292.9735 15.06390547 53859 STARLINK-1263 1 45405U 20019AX 21063.26216813 .00001035 00000-0 88401-4 0 9995 2 45405 53.0586 78.1890 0001372 62.4602 297.6526 15.06391465 53828 STARLINK-1265 1 45406U 20019AY 21063.60127038 .00000676 00000-0 64294-4 0 9998 2 45406 53.0582 76.6721 0001215 70.3263 289.7857 15.06391977 53870 STARLINK-1275 1 45407U 20019AZ 21063.41697338 .00001327 00000-0 10798-3 0 9996 2 45407 53.0570 77.4996 0002206 53.4206 306.6986 15.06400646 53844 STARLINK-1278 1 45408U 20019BA 21063.49529893 .00000959 00000-0 83230-4 0 9997 2 45408 53.0590 107.1461 0001187 74.9558 285.1562 15.06403603 53443 STARLINK-1282 1 45409U 20019BB 21063.42434300 -.00001290 00000-0 -67706-4 0 9990 2 45409 53.0577 77.4637 0001394 64.7113 295.4020 15.06397797 53851 STARLINK-1285 1 45410U 20019BC 21063.55619767 -.00001093 00000-0 -55884-4 0 9993 2 45410 53.0000 76.8841 0000786 114.5169 245.5901 15.05582288 53868 STARLINK-1293 1 45411U 20019BD 21063.50544645 .00001268 00000-0 10401-3 0 9998 2 45411 53.0581 77.0993 0001412 67.9760 292.1379 15.06399407 53888 STARLINK-1296 1 45412U 20019BE 21063.40592047 .00000770 00000-0 70630-4 0 9995 2 45412 53.0572 77.5472 0001498 78.3776 281.7381 15.06391677 53847 STARLINK-1298 1 45413U 20019BF 21063.30271830 .00000876 00000-0 77722-4 0 9995 2 45413 53.0576 78.0090 0001399 56.5118 303.6004 15.06397494 53920 STARLINK-1309 1 45414U 20019BG 21063.55336052 .00001080 00000-0 91409-4 0 9997 2 45414 53.0573 76.8862 0001589 74.1860 285.9304 15.06391781 53852 STARLINK-1316 1 45415U 20019BH 21063.24740441 .00000617 00000-0 60311-4 0 9998 2 45415 53.0578 78.2601 0001378 69.9815 290.1322 15.06406616 53844 STARLINK-1318 1 45416U 20019BJ 21063.34694335 .00000871 00000-0 77351-4 0 9994 2 45416 53.0592 77.8146 0001358 78.1681 281.9460 15.06387859 53849 STARLINK-1286 1 45417U 20019BK 21063.35154102 .00001003 00000-0 86216-4 0 9997 2 45417 53.0571 107.7955 0001061 82.8412 277.2698 15.06404743 53699 STARLINK-1299 1 45418U 20019BL 21063.66135759 .00002138 00000-0 19102-3 0 9998 2 45418 53.0010 115.6356 0001045 109.0901 251.0198 15.00025145 53355 STARLINK-1308 1 45419U 20019BM 21063.54689916 .00001000 00000-0 86026-4 0 9992 2 45419 53.0593 106.9144 0001260 73.6537 286.4591 15.06391865 53473